Location: La Chapelle
(48.3135°N, 1.3085°W)
Time: 11:18:51
(UTC+00:00)

Terra - Pass Details

Date: 03 March 2021
Orbit: 701 x 703 km, 98.2° (Epoch: 11 April)

Event Time Altitude Azimuth Distance (km) Brightness Sun altitude
Exits shadow 21:21:34 14° 3° (N) 1,902 4.3 -34.1°
Drops below altitude 10° 21:22:20 10° 359° (N) 2,183 4.7 -34.2°
Sets 21:24:42 0° 352° (N) 3,106 5.7 -34.5°
